IBS1601 LEMD-GCLP

Flight info

Callsign IBS1601
Flight time N/A
Altitude FL330
Route VTB N10 CRISA/N0453F390 N10 HIJ N857 KORNO UN857 TERTO
Aircraft A320/M-S/N

Departure

Time 2026-05-05 22:40
Airport Adolfo Suárez Madrid–Barajas Airport (LEMD)

Arrival

Time N/A
Airport Gran Canaria Airport (GCLP)
Time Latitude Longitude Altitude Speed Heading
2026-05-05 22:09 40.49890 -3.58667 1991 ft 0 kts 89°
2026-05-05 22:28 40.49878 -3.58646 1991 ft 6 kts 150°
2026-05-05 22:28 40.49843 -3.58617 1993 ft 6 kts 148°
2026-05-05 22:28 40.49811 -3.58602 1992 ft 4 kts 169°
2026-05-05 22:28 40.49783 -3.58593 1991 ft 4 kts 162°
2026-05-05 22:29 40.49763 -3.58579 1992 ft 3 kts 144°
2026-05-05 22:29 40.49743 -3.58540 1992 ft 8 kts 110°
2026-05-05 22:29 40.49738 -3.58448 1992 ft 13 kts 91°
2026-05-05 22:29 40.49737 -3.58313 1993 ft 17 kts 88°
2026-05-05 22:30 40.49738 -3.58227 1994 ft 2 kts 90°
2026-05-05 22:30 40.49738 -3.58186 1994 ft 7 kts 89°
2026-05-05 22:30 40.49739 -3.58099 1994 ft 10 kts 89°
2026-05-05 22:30 40.49738 -3.58091 1994 ft 0 kts 111°
2026-05-05 22:31 40.49736 -3.58090 1995 ft 1 kts 135°
2026-05-05 22:31 40.49723 -3.58078 1994 ft 5 kts 152°
2026-05-05 22:31 40.49691 -3.58066 1995 ft 4 kts 173°
2026-05-05 22:31 40.49662 -3.58062 1995 ft 4 kts 175°
2026-05-05 22:32 40.49637 -3.58061 1995 ft 3 kts 178°
2026-05-05 22:32 40.49607 -3.58061 1995 ft 5 kts 181°
2026-05-05 22:32 40.49569 -3.58062 1995 ft 5 kts 180°
2026-05-05 22:32 40.49535 -3.58062 1995 ft 5 kts 180°
2026-05-05 22:33 40.49503 -3.58062 1995 ft 4 kts 180°
2026-05-05 22:33 40.49475 -3.58063 1995 ft 4 kts 180°
2026-05-05 22:33 40.49438 -3.58062 1995 ft 7 kts 179°
2026-05-05 22:33 40.49378 -3.58061 1995 ft 10 kts 179°
2026-05-05 22:34 40.49301 -3.58060 1995 ft 10 kts 177°
2026-05-05 22:34 40.49249 -3.58008 1996 ft 11 kts 104°
2026-05-05 22:34 40.49246 -3.57903 1996 ft 13 kts 91°
2026-05-05 22:34 40.49246 -3.57778 1997 ft 15 kts 90°
2026-05-05 22:35 40.49247 -3.57671 1998 ft 11 kts 87°
2026-05-05 22:35 40.49249 -3.57648 1998 ft 1 kts 82°
2026-05-05 22:35 40.49252 -3.57625 1998 ft 4 kts 74°
2026-05-05 22:35 40.49263 -3.57591 1999 ft 0 kts 64°
2026-05-05 22:36 40.49263 -3.57592 1999 ft 0 kts 64°
2026-05-05 22:38 40.49281 -3.57552 1999 ft 15 kts 52°
2026-05-05 22:39 40.49383 -3.57469 1998 ft 18 kts
2026-05-05 22:39 40.49440 -3.57467 1998 ft 13 kts 359°
2026-05-05 22:39 40.49753 -3.57468 1998 ft 77 kts
2026-05-05 22:39 40.50510 -3.57471 2000 ft 140 kts 359°
2026-05-05 22:40 40.51594 -3.57468 2313 ft 158 kts 359°
2026-05-05 22:40 40.52682 -3.57449 2934 ft 157 kts
2026-05-05 22:40 40.53603 -3.57684 3929 ft 121 kts 315°
2026-05-05 22:40 40.54088 -3.58638 4492 ft 142 kts 282°
2026-05-05 22:41 40.53983 -3.60049 4866 ft 171 kts 261°
2026-05-05 22:41 40.53402 -3.61536 5168 ft 204 kts 224°
2026-05-05 22:41 40.52009 -3.62338 5410 ft 241 kts 190°
2026-05-05 22:41 40.50236 -3.62306 5870 ft 267 kts 173°
2026-05-05 22:42 40.48391 -3.61791 6678 ft 276 kts 167°
2026-05-05 22:42 40.46536 -3.61129 7601 ft 279 kts 167°
2026-05-05 22:42 40.44660 -3.60475 8566 ft 280 kts 168°
2026-05-05 22:42 40.42757 -3.59887 9539 ft 282 kts 170°
2026-05-05 22:43 40.40826 -3.59377 10382 ft 288 kts 172°
2026-05-05 22:43 40.38784 -3.58901 10786 ft 310 kts 173°
2026-05-05 22:43 40.36579 -3.58433 11145 ft 332 kts 174°
2026-05-05 22:43 40.34235 -3.57958 11582 ft 350 kts 174°
2026-05-05 22:44 40.31798 -3.57467 12286 ft 358 kts 174°
2026-05-05 22:44 40.29407 -3.56981 13067 ft 363 kts 175°
2026-05-05 22:44 40.26899 -3.56466 13895 ft 367 kts 175°
2026-05-05 22:44 40.24367 -3.55943 14641 ft 371 kts 175°
2026-05-05 22:45 40.21809 -3.55414 15368 ft 375 kts 175°
2026-05-05 22:45 40.19218 -3.54879 16122 ft 379 kts 175°
2026-05-05 22:45 40.16607 -3.54340 16862 ft 383 kts 176°
2026-05-05 22:45 40.13962 -3.53794 17593 ft 387 kts 176°
2026-05-05 22:46 40.12189 -3.53429 18066 ft 390 kts 176°
2026-05-05 22:46 40.08604 -3.52692 18909 ft 394 kts 176°
2026-05-05 22:46 40.05889 -3.52134 19520 ft 398 kts 177°
2026-05-05 22:46 40.03149 -3.51571 20127 ft 401 kts 177°
2026-05-05 22:47 40.00385 -3.51005 20732 ft 404 kts 178°
2026-05-05 22:47 39.97604 -3.50434 21320 ft 407 kts 178°
2026-05-05 22:47 39.94798 -3.49860 21918 ft 410 kts 178°
2026-05-05 22:47 39.91976 -3.49282 22483 ft 413 kts 178°
2026-05-05 22:48 39.89127 -3.48700 23044 ft 417 kts 178°
2026-05-05 22:48 39.86264 -3.48147 23591 ft 417 kts 181°
2026-05-05 22:48 39.83384 -3.47963 24033 ft 413 kts 189°
2026-05-05 22:48 39.80554 -3.48330 24468 ft 407 kts 198°
2026-05-05 22:49 39.77857 -3.49309 24904 ft 401 kts 207°
2026-05-05 22:49 39.75375 -3.50869 25363 ft 395 kts 217°
2026-05-05 22:49 39.73168 -3.52940 25798 ft 390 kts 226°
2026-05-05 22:49 39.71189 -3.55333 26238 ft 390 kts 229°
2026-05-05 22:50 39.69271 -3.57821 26662 ft 391 kts 230°
2026-05-05 22:50 39.67377 -3.60355 27088 ft 392 kts 231°
2026-05-05 22:50 39.65488 -3.62900 27511 ft 394 kts 231°
2026-05-05 22:50 39.63585 -3.65455 27917 ft 395 kts 231°
2026-05-05 22:51 39.61664 -3.68013 28316 ft 397 kts 231°
2026-05-05 22:51 39.59732 -3.70566 28690 ft 399 kts 231°
2026-05-05 22:51 39.57785 -3.73124 29164 ft 398 kts 231°
2026-05-05 22:51 39.55845 -3.75660 29740 ft 395 kts 231°
2026-05-05 22:52 39.53915 -3.78179 30256 ft 393 kts 231°